Regional Weather Roundup
Issued by NWS Wakefield, VA

Home | Current Version | Previous Version | Graphics & Text | Print | Product List | Glossary On
Versions: 1 2 3 4 5 6 7 8 9 10 11 12 13 14 15 16 17 18 19 20 21 22 23 24 25 26 27 28 29 30 31 32 33 34 35 36 37 38 39 40 41 42 43 44 45 46 47 48 49 50
000
ASUS41 KAKQ 202110
RWRAKQ

REGIONAL WEATHER ROUNDUP
NATIONAL WEATHER SERVICE WAKEFIELD VA
400 PM EST THU NOV 20 2014

Note: "fair" indicates few or no clouds below 12,000 feet with no
significant weather and/or obstructions to visibility. * = Denotes
station may not report precipitation (e.g., rain,snow,etc.),
thunder or fog.

VAZ042-051-052>054-056-202200-
NORTHERN VIRGINIA

CITY           SKY/WX    TMP DP  RH WIND       PRES   REMARKS
WASH NATIONAL  PTCLDY    55  22  27 SW7       29.90S
DULLES         PTCLDY    51  23  33 W3        29.90R
FORT BELVOIR   CLEAR     54  23  29 CALM      29.90S
QUANTICO       PTCLDY    55  18  23 W14G23    29.92R
FREDERICKSBRG* CLEAR     56  24  29 SW10G16   29.91R
STAFFORD*      CLEAR     54  15  21 W8        29.95R
WARRENTON      CLEAR     55  26  33 SW10G16   29.90R
CULPEPER*      CLEAR     55  14  19 W14G20    29.91R
MANASSAS*      CLEAR     54  18  24 W10G20    29.90R
LEESBURG*      CLEAR     50  25  37 N9        29.91R
WINCHESTER     CLEAR     46   3  17 W16G22    29.90R
FRONT ROYAL*   CLEAR     48  12  23 W10G20    29.90R
LURAY*         CLEAR     52  16  24 W10       29.91R
$$

VAZ048-049-060>072-079>083-202200-
CENTRAL AND SOUTH CENTRAL VIRGINIA

CITY           SKY/WX    TMP DP  RH WIND       PRES   REMARKS
RICHMOND       PTCLDY    56  23  27 W14G24    29.94S
CHESTERFIELD*  CLEAR     55  21  26 W10       29.96R
PETERSBURG*    CLEAR     56  23  27 SW14G21   29.96R
HANOVER        CLEAR     54  25  32 SW10G20   29.95R
TAPPAHANNOCK*  CLEAR     55  17  22 SW9       29.94R
QUINTON*       FAIR      55  24  31 SW10G16   29.94R
CHARLOTTSVILLE CLEAR     53  16  23 VRB7      29.92R
GORDONSVILLE*  CLEAR     53  18  25 SW8G18    29.92R
ORANGE*        CLEAR     54  19  26 SW10      29.93R
LOUISA*          N/A     55  21  26 W9        29.91R
BUMPASS*       FAIR      54  20  26 MISG      29.92R
FARMVILLE*     CLEAR     58  19  22 SW10G17   29.94R
CREWE*         CLEAR     55  23  29 SW9       29.95S
FORT PICKETT*  CLEAR     54  24  30 SW10G22   29.96R
LUNENBURG*     CLEAR    N/A N/A N/A W8        29.96R
CHASE CITY*    FAIR      56  29  35 W5        29.98R
CLARKSVILLE*   FAIR      54  28  37 W10G16    29.98R
SOUTH HILL*    CLEAR     55  25  32 SW9G18    30.04R
LAWRENCEVILLE* CLEAR     55  27  33 W12G20    29.97R
$$

VAZ088>098-202200-
SOUTHEAST VIRGINIA

CITY           SKY/WX    TMP DP  RH WIND       PRES   REMARKS
NORFOLK        CLEAR     56  24  29 SW12G21   29.95F
VIRGINIA BEACH CLEAR     57  26  30 SW16G24   29.96S
NORFOLK NAVAL  CLEAR     58  27  30 SW12G21   29.97S
WEST POINT*    CLEAR     57  20  23 SW14      29.95R
SALUDA*        FAIR      55  25  31 W8G17     29.93R
NEWPORT NEWS   CLEAR     58  26  29 W15G22    29.95S
LANGLEY AFB    CLEAR     55  29  35 SW14      29.96S
FORT EUSTIS    CLEAR     56  31  38 W8G20     29.94R
WILLIAMSBURG*  CLEAR     59  30  33 W15G22    29.96R
HR EXEC AP*    CLEAR     55  27  33 SW12G21   29.99R
FRANKLIN*      CLEAR     55  25  30 W12G18    29.98R
WAKEFIELD      CLEAR     56  25  30 W8        29.96S
$$

VAZ020-022-025-037-045-202200-
WEST CENTRAL AND SOUTHWEST VIRGINIA

CITY           SKY/WX    TMP DP  RH WIND       PRES   REMARKS
STAUNTON*      CLEAR     49   9  20 W14G25    29.94R
WAYNESBORO*    CLEAR     47  14  26 W9G22     29.92R
HOT SPRINGS VA SUNNY     35  10  36 W20G31    29.87R WCI  24
LYNCHBURG      SUNNY     51  19  28 SW8G20    29.97R
DANVILLE       SUNNY     57  25  29 W17G25    29.99R
SOUTH BOSTON*  CLEAR     56  24  29 SW9       29.99R
MARTINSVILLE   SUNNY     54  19  25 W13G18    30.03R
ROANOKE        MOSUNNY   51  19  28 W8G20     29.99R
BLACKSBURG     SUNNY     46  25  42 SW9G21    29.99R
DUBLIN*        SUNNY     46  22  38 W14G21    30.00S
MARION*        SUNNY     43  20  39 W18G29    30.03R
HILLSVILLE*    SUNNY     42  20  40 W20G26    30.00R
RICHLANDS*     CLEAR     45  19  36 W15G26    30.02R
WISE*          SUNNY     41  16  36 SW13      30.05S
ABINGDON*      MOSUNNY   47  22  37 W12G21    30.06S
$$

MDZ021>025-VAZ099-100-202200-
SOUTHERN MARYLAND AND THE DELMARVA PENINSULA

CITY           SKY/WX    TMP DP  RH WIND       PRES   REMARKS
PATUXENT RIVER PTCLDY    53  23  31 W14G21    29.91S
BAY BRIDGE APT   N/A     50  27  40 SW5       29.90R
LEONARDTOWN    CLEAR     52  23  32 SW8       29.92S
DOVER          CLEAR     50  25  37 SW13      29.87S
GEORGETOWN     CLEAR     52  23  32 W8G20     29.91R
EASTON         CLEAR     54  28  37 SW7       29.93S
CAMBRIDGE      CLEAR     54  25  32 SW9       29.90S
SALISBURY      CLEAR     53  24  32 W16       29.91S
OCEAN CITY     CLEAR     51  24  34 W14       29.92R
WALLOPS ISLAND CLEAR     52  24  33 W9        29.93S
ACCOMACK*      CLEAR     54  28  37 W10       29.94S
$$

NCZ012>017-030>032-202200-
NORTH CENTRAL AND EASTERN NORTH CAROLINA

CITY           SKY/WX    TMP DP  RH WIND       PRES   REMARKS
ROANOKE RAPIDS CLEAR     55  28  35 SW18      30.00R
RALEIGH        MOSUNNY   57  25  29 W10G21    30.02R
ELIZABETH CITY CLEAR     58  27  30 SW18      29.99S
AHOSKIE*       CLEAR     53  28  37 CALM      30.01R
EDENTON*       CLEAR     56  30  36 SW12      30.01R
CURRITUCK*     CLEAR     57  22  26 W13       29.99S
KILL DEVIL HLS CLEAR     54  32  43 SW7       30.00R
MANTEO         CLEAR     54  32  44 SW13      30.01S
CAPE HATTERAS  CLEAR     53  34  48 W9G18     30.05F
TARBORO*       CLEAR     58  27  30 SW8G17    30.03R
GOLDSBORO      SUNNY     59  29  32 SW18G24   30.02S
WASHINGTON     CLEAR     57  27  31 SW14      30.02F
GREENVILLE     CLEAR     59  28  31 W12G20    30.04S
NEW BERN       CLEAR     60  28  29 SW7       30.05S
WILMINGTON     SUNNY     58  34  40 SW14      30.07S
$$

VAZ048-202200-
ELSEWHERE

CITY           SKY/WX    TMP DP  RH WIND       PRES   REMARKS
HARRISBURG PA  CLEAR     40  17  39 NW17      29.92R
BALTIMORE      PTCLDY    49  22  34 NW8       29.89R
ANNAPOLIS      CLEAR     51  22  31 W6        29.89S
ANDREWS AFB    CLEAR     52  23  33 SW9       29.89R
PHILADELPHIA   MOCLDY    47  23  38 W14       29.89R
WILDWOOD NJ*   CLEAR     50  27  40 W8        29.87R
HENDERSON NC   SUNNY     56  22  27 SW14G23   29.99S
GREENSBORO     MOSUNNY   55  26  32 W14       30.01R
ROCKY MOUNT    SUNNY     57  27  31 SW13G21   30.02R
$$

VAZ100-202200-
MARINE

STATION/POSITION TIME  TEMP    WIND        PRES    WAVE   SWELL
                       AIR SEA DIR/SP/G            HT/PER HT/PER
                 (UTC) (F)     (DEG/KT/KT) (MB)    (FT/S) (FT/S)
CAPE MAY NJ      2100   47 46  260/ 14/ 15 1011.8R
LEWES DE         2100   52 48  270/ 14/ 17 1012.0F
15NM E FENWICK I 2100   52 54              1012.5R   5/ 6
OCEAN-CITY-INLET 2100   51 46  270/ 13/ 18 1012.6R
WACHAPREAGUE VA  2100   54 43  240/  5/ 12 1013.7R
THOMAS POINT MD  2100   51 50  260/ 12/ 14 1013.5R
GOOSES REEF MD   2100   52     260/ 14/ 17 1012.9R
COVE POINT MD    2100   53     270/ 12/ 16 1012.4S
SOLOMONS ISLAND  2100      49                N/A
BISHOPS HEAD MD  2100   49 42  250/  8/ 10 1012.3F
PINEY POINT MD   2100          260/ 13/ 14   N/A
POTOMAC MD       2100   53     260/ 14/ 19 1012.2R
CAMBRIDGE MD     2100   52 44  240/ 10/ 14 1012.3F
LEWISETTA VA     2100   53 46  260/ 17/ 22 1012.7R
RAPPAHANNOCK LGT 2100          230/ 13/ 15 1013.9S
STINGRAY PT      2100   54     250/ 14/ 17 1013.9S
YORK RVR RNG VA  2100   55     270/ 20/ 24 1013.0F
YORKTOWN VA      2100   56 51  250/ 12/ 16 1013.3S
JAMESTOWN VA     2100   57     270/ 14/ 17   N/A
DOMINION TERM VA 2100   55     240/ 14/ 16 1014.1F
KIPTOPEKE VA     2100      53  250/ 13/ 17   N/A
CHES BAY BRIDGE  2100   54 52  230/ 18/ 20 1013.6S
CAPE HENRY VA    2100   56     250/ 12/ 19 1013.2S
CHESAPEAKE LGHT  2000   56     250/ 26/ 28 1014.5F
WILLOUBY STN VA  2100   54     240/ 16/ 20 1012.5S
S CRANEY ISL VA  2100          240/ 13/ 18 1014.2S
CAPE HENRY BUOY  2000      55                N/A     3/ 4
1ST LANDING BUOY 2100   55     250/ 16/ 19 1014.1F
CAPE CHARLES BUO 2000      55                N/A     3/ 4
64NM E OF VA BCH 2100   55 61  230/ 19/ 23 1014.9F   4/ 5
DUCK PIER NC     2100   54 55  240/  8/ 13 1014.9F
44100 DUCK FRF   2100      58                N/A     2/ 4
44056 DUCK FRF   2000      57                N/A     1/ 2
OREGON INLET NC  2100   51 46  200/ 16/ 19 1016.4S
HATTERAS NC      2100   55 51  240/  8/ 15 1017.8S
DIAMOND SHLS NC  2100   59     240/ 21/ 29 1017.3F   7/ 6
CAPE LOOKOUT NC  2000   56     240/ 15/ 20 1018.1F


USA.gov is the U.S. government's official web portal to all federal, state and local government web resources and services.